www.pogodaiklimat.ru

Погода и климат >> Архив погоды >> Ирак >> Basrah Airport


ПОГОДА в Basrah Airport

  • Прогноз погоды в Basrah Airport
  • Монитор погоды в Basrah Airport
  • Климат города

АРХИВ ПОГОДЫ в Basrah Airport

Время (UTC), дата Ветер
(напр.,м/с)
 
Видим.   Явления Облачность Т
(С)
Тd
(С)
f
(%)
Тe
(С)
Тes
(С)
Комфортность P
(гПа)
Po
(гПа)
Тmin
(С)
Tmax
(С)
R
(мм)
R24
(мм)
S
(см)
21 10.10 ЮЗ 3 10 км ясно +26.2 +4.4 25 +25 +25 комфорт 1007.5 1008.0
00 11.10 З 6 10 км ясно +24.0 +6.4 32 +24 +24 комфорт 1008.0 1008.0
03 11.10 З 6 10 км ясно +21.5 +9.3 46 +23 +23 комфорт 1009.5 1010.0
06 11.10 З 7 10 км ясно +29.8 +10.4 30 +30 +32 жарко 1010.8 1011.0 +20.9
09 11.10 СЗ 10 10 км ясно +37.1 +6.3 15 +35 +35 очень
жарко
1010.8 1011.0
12 11.10 З 8 10 км ясно +37.3 +3.3 12 +34 +35 очень
жарко
1010.0 1010.0
15 11.10 З 4 10 км ясно +31.0 +8.3 24 +30 +30 жарко 1010.9 1011.0
18 11.10 СЗ 5 10 км ясно +26.1 +10.7 38 +27 +27 жарко 1012.0 1012.0 +38.0
21 11.10 СЗ 4 10 км ясно +23.0 +10.6 45 +25 +25 комфорт 1012.5 1013.0
00 12.10 СЗ 8 10 км ясно +21.4 +11.1 52 +23 +23 комфорт 1012.7 1013.0
03 12.10 З 3 10 км ясно +17.3 +9.2 59 +17 +17 1013.3 1013.0
06 12.10 СЗ 6 10 км ясно +28.8 +7.7 27 +28 +31 жарко 1014.5 1015.0 +16.4
09 12.10 СЗ 8 10 км ясно +35.2 +4.0 14 +32 +35 жарко 1013.3 1013.0
12 12.10 СЗ 8 10 км ясно +35.8 +0.8 11 +32 +33 жарко 1012.3 1012.0
15 12.10 СЗ 5 10 км ясно +30.4 +4.2 19 +28 +28 жарко 1012.5 1013.0
18 12.10 З 3 10 км ясно +22.8 +6.0 34 +23 +23 комфорт 1013.3 1013.0 +36.2
00 13.10 СЗ 4 10 км ясно +19.3 +8.8 51 +20 +20 1011.9 1012.0
03 13.10 ЮЗ 4 10 км ясно +17.1 +5.4 46 +17 +17 1012.6 1013.0
06 13.10 СЗ 3 10 км ясно +28.2 +5.5 24 +27 +32 жарко 1013.8 1014.0 +16.4
09 13.10 СЗ 5 10 км ясно +35.1 -4.5 8 +31 +38 жарко 1012.1 1012.0
12 13.10 З 4 10 км ясно +37.5 -5.0 7 +33 +37 жарко 1009.9 1010.0
15 13.10 СЗ 2 10 км ясно +31.6 +2.9 16 +29 +29 жарко 1009.8 1010.0
18 13.10 З 3 10 км ясно +25.4 +5.0 27 +25 +25 комфорт 1010.9 1011.0 +37.9
21 13.10 СЗ 3 10 км ясно +22.6 +5.5 33 +23 +23 комфорт 1010.3 1010.0
00 14.10 С 3 10 км ясно +24.5 +6.0 30 +24 +24 комфорт 1010.0 1010.0
03 14.10 штиль 0 10 км ясно +18.2 +4.7 41 +18 +18 1010.7 1011.0
09 14.10 штиль 0 10 км ясно +36.0 +4.9 15 +33 +50 жарко 1010.6 1011.0
12 14.10 ЮЗ 2 10 км ясно +37.4 +3.4 12 +34 +39 очень
жарко
1009.0 1009.0
15 14.10 С 2 10 км ясно +32.4 +8.8 23 +31 +31 жарко 1008.7 1009.0
18 14.10 СВ 2 10 км ясно +27.4 +9.2 32 +28 +28 жарко 1009.3 1009.0 +38.2
21 14.10 штиль 0 10 км ясно +22.4 +9.7 44 +24 +24 комфорт 1009.5 1010.0
00 15.10 штиль 0 10 км ясно +20.8 +7.5 42 +22 +22 комфорт 1009.6 1010.0
03 15.10 штиль 0 10 км ясно +18.5 +6.6 46 +19 +19 1010.5 1011.0
06 15.10 ЮВ 4 10 км ясно +30.1 +5.4 21 +28 +33 жарко 1012.0 1012.0 +17.9
12 15.10 З 2 10 км ясно +37.9 +2.2 11 +35 +40 очень
жарко
1009.5 1010.0
15 15.10 СВ 3 10 км ясно +32.3 +5.4 19 +30 +30 жарко 1009.5 1010.0
00 16.10 штиль 0 10 км ясно +23.9 +6.1 32 +24 +24 комфорт 1010.1 1010.0
03 16.10 штиль 0 10 км ясно +19.0 +4.0 37 +19 +19 1011.3 1011.0
06 16.10 С 4 10 км ясно +29.9 +10.2 29 +30 +34 жарко 1012.3 1012.0 +18.5
09 16.10 С 4 10 км ясно +36.3 +4.9 14 +33 +42 жарко 1011.4 1011.0
12 16.10 С 4 10 км ясно +37.3 +1.5 11 +34 +37 очень
жарко
1009.7 1010.0
15 16.10 С 4 10 км ясно +31.4 +5.5 20 +30 +30 жарко 1009.7 1010.0
18 16.10 С 3 10 км ясно +26.8 +6.0 27 +26 +26 жарко 1010.1 1010.0 +38.2
21 16.10 СЗ 3 10 км ясно +24.4 +7.1 33 +25 +25 комфорт 1010.6 1011.0
00 17.10 С 3 10 км ясно +22.5 +9.9 45 +24 +24 комфорт 1010.2 1010.0
03 17.10 С 4 10 км ясно +21.8 +7.6 40 +23 +23 комфорт 1010.9 1011.0
06 17.10 С 5 10 км ясно +28.8 +8.0 27 +28 +31 жарко 1012.6 1013.0 +20.2
09 17.10 С 8 10 км ясно +35.8 +1.5 12 +32 +35 жарко 1011.8 1012.0
12 17.10 С 8 10 км ясно +35.7 +0.8 11 +32 +33 жарко 1009.9 1010.0

 

Местоположение метеостанции Basrah Airport (Ирак): широта 30.52 долгота 47.78 высота над уровнем моря 3 м.

В архиве по умолчанию представлена погода в Basrah Airport за последнюю неделю. Архивные данные за месяц целиком и за предыдущие месяцы, начиная с января 2011 года, Вы можете получить, выбрав интересующий диапазон дат из раскрывающегося списка и нажав кнопку "Ввод!".

Внимание! Время в таблицах - всемирное. Для получения местного времени необходимо прибавить поправку, которая в Basrah Airport равна 3 ч.

Смотрите также архив погоды в соседних городах и на ближайших метеорологических станциях:

Погода в Basrah (Ирак) (6 км)
Погода в Abadan (Иран) (48 км)
Погода в Abdaly (Кувейт) (50 км)
Погода в Warba (Кувейт) (66 км)
Погода в Sabriyah (Кувейт) (86 км)
Погода в Mitribah (Кувейт) (87 км)
Погода в Fao (Ирак) (92 км)
Погода в Bubiyan (Кувейт) (101 км)
Погода в Ahwaz (Иран) (124 км)
Погода в Failaka Island (Кувейт) (126 км)

Пояснения к столбцам:

Ветер - указаны скорость ветра в м/с - средняя за 10 мин, порывы в срок и между сроками (в фигурных скобках) и направление, откуда дует ветер: С - северный, СВ - северо-восточный, В - восточный, ЮВ - юго-восточный, Ю - южный, ЮЗ - юго-западный, З - западный, СЗ - северо-западный.
Видимость - горизонтальная дальность видимости в метрах или километрах. При видимости от 1 до 10 км при отсутствии осадков обычно наблюдается дымка, при ухудшении видимости до 1 км и менее - туман. В сухую погоду видимость может ухудшаться дымом, пылью или мглою.
Явления - указаны атмосферные явления, наблюдавшиеся в срок или в последний час перед сроком; фигурными скобками обозначены явления, наблюдавшиеся между сроками (за 1-3 часа до срока); квадратными скобками обозначены град или гололедные отложения с указанием их диаметра в мм.
Облачность - указаны через наклонную черту общая и нижняя облачность в баллах и высота нижней границы облаков в метрах; квадратными скобками обозначены формы облаков: Ci - перистые, Cs - перисто-слоистые, Cc - перисто-кучевые, Ac - высококучевые, As - высокослоистые, Sc - слоисто-кучевые, Ns - слоисто-дождевые, Cu - кучевые, Cb - кучево-дождевые. Подробнее классификацию облаков см. в Атласе облаков (PDF).
T - Температура воздуха - температура, измеренная на высоте 2 м над землей.
Td - Температура точки росы - температура, при понижении до которой содержащийся в воздухе водяной пар достигнет насыщения.
f - Относительная влажность воздуха - влажноcть воздуха, измеренная на высоте 2 м над землей.
Te - Эффективная температура - температура, которую ощущает одетый по сезону человек в тени. Характеристика душности погоды. При расчете учитывается влияние влажности воздуха и скорости ветра на теплоощущения человека.
Tes - Эффективная температура на солнце - температура, которую ощущает человек, с поправкой на солнечный нагрев. Характеристика знойности погоды. Зависит от высоты солнца над горизонтом, облачности и скорости ветра. Ночью, в пасмурную погоду, а также при ветре 12 м/с и более поправка равна нулю.
P - Атмосферное давление - приведенное к уровню моря атмосферное давление.
Po - Атмосферное давление - измеренное на уровне метеостанции атмосферное давление.
Tmin - Минимальная температура - минимум температуры воздуха на высоте 2 м над землей.
Tmax - Максимальная температура - максимум температуры воздуха на высоте 2 м над землей.
R - Количество осадков - Количество выпавших осадков за период времени, мм. При наведении курсора мыши на число - период времени, за который выпало указанное количество осадков.
R24 - Количество осадков - Количество выпавших осадков за 24 часа, мм.
S - Снежный покров - Высота снежного покрова, см. При наведении курсора мыши на число - состояние снежного покрова и степень покрытия местности в баллах.